Showing default

RASSVET-3 8, 68367

Orbit data source: Space-Track

RASSVET-3 8, 68367 is a payload satellite owned by Byuro 1440 (CIS) in LEO that was launched on Mon, 23 Mar 2026 UTC via a SOYUZ-2-1B launch vehicle from the Plesetsk Missile And Space Complex (PKMTR). Payload-class satellites include a variety of spacecraft equipped with specific instruments for various scientific and technological missions. These include communications satellites like Starlink; space stations such as the ISS; scientific satellites like the Hubble; Earth observation satellites from companies like Planet Labs, Umbra, and HawkEye 360; GPS; miniature CubeSats for education and research; and military/defense satellites.

Loading next visibility...
Identifier
68367, 2026-061H
Orbit
LEO
Country
Flag of CISCIS
Related business
Manufacturer
Byuro 1440
Mission
Operational spacecraft
Bus & Motor
RASSVET-2, Unknown motor
Mass
~370 kg wet, ~370 kg dry
Launch date (UTC)
2026-03-23 (3 months ago)
Launch vehicle
SOYUZ-2-1B
Launch site
Plesetsk Missile And Space Complex (PKMTR)
Object type
Payload
Rocket body
Debris
Shape & HBR
Unknown shape, 14.5 m
Radar Cross Section
Large (>1 m²)

Expand to show TLE details & history
Last TLE update: 12 hours ago

TLE from 12 hours ago
0 RASSVET-3 8
1 68367U 26061H   26169.60513184 -.00577961  00000-0 -87851-2 0  9995
2 68367  82.2929  10.7675 0004161 218.5655 141.5302 15.56471433 13777
Epoch: 2026-06-18T14:31Z
TLE epoch observation values (Epoch: 2026-06-18T14:31:23.390Z)
Latitude
-0.00008°
Longitude
-113.92603°
Altitude
403.218 km
Speed
7.667 km/s
True Right ascension
00h 43m 04s
True Declination
0° 00' 00"
Sunlit
Object was in daylight at epoch
Visualization orbit readout
Latitude
Unknown
Longitude
Unknown
Altitude
Unknown
Speed
Unknown
Apparent Right ascension
Unknown
Apparent Declination
Unknown
Sunlit
N/A
Visualization observer readout
Local Sidereal Time
13:25:08
Azimuth
Unknown
Elevation
Unknown
Doppler factor
Unknown
Orbital elements
Apogee altitude
397.628 km
Perigee altitude
391.991 km
Semi-major axis
6,772.946 km
Eccentricity
0.00042
Inclination
82.2929°
RAAN
10.7675°
Arg. of periapsis
218.5655°
True anomaly
141.55985°
Mean anomaly
141.5302°
Eccentric anomaly
141.54503°
Mean motion
3.89383 °/min
Orbital period
92.45 mins
BSTAR
-0.0087851
Loading maneuver chart data...
Computing Atmospheric mass density...
Loading historical data...
Loading historical data...
Loading historical data...
Loading historical data...
Loading historical data...
Loading historical data...
Loading historical data...

Documentation

Showing up to 5 results
|